Bishop, CA

3:58 PM PDT on October 16, 2017 (GMT -0700)
Bishop

Weather History for KBIH - February, 2013

Change the Weather History Date:

Friday, February 8, 2013

  Actual Average Record
Temperature  
Mean Temperature 39 °F 41 °F  
Max Temperature 45 °F 56 °F 76 °F (1954)
Min Temperature 32 °F 25 °F -2 °F (1969)
Degree Days  
Heating Degree Days 26 24  
Month to date heating degree days 176 197  
Since 1 July heating degree days 2718 2766  
Cooling Degree Days 0 0  
Month to date cooling degree days 0 0  
Year to date cooling degree days 0 0  
Moisture  
Dew Point 17 °F    
Average Humidity 49    
Maximum Humidity 72    
Minimum Humidity 25    
Precipitation  
Precipitation 0.00 in 0.03 in 0.89 in (1962)
Month to date precipitation 0.00 0.23  
Year to date precipitation T 1.28  
Snow  
Snow 0.00 in 0.00 in 0.30 in (1978)
Month to date snowfall 0.0 0.3  
Since 1 July snowfall 2.8 7.0  
Snow Depth 0.00 in    
Sea Level Pressure  
Sea Level Pressure 29.74 in    
Wind  
Wind Speed 17 mph (North)    
Max Wind Speed 28 mph    
Max Gust Speed 38 mph    
Visibility 10 miles    
Events      
T = Trace of Precipitation, MM = Missing Value Source: NWS Daily Summary

Daily Weather History Graph

Daily Weather History Graph

Search for Another Location

Airport or City:

Trip Planner

Search our weather history database for the weather conditions in past years. The results will help you decide how hot, cold, wet, or windy it might be!

Date:

Astronomy

Feb. 08, 2013 Rise Set
Actual Time 6:49 AM PST 5:25 PM PST
Civil Twilight 6:22 AM PST 5:53 PM PST
Nautical Twilight 5:51 AM PST 6:23 PM PST
Astronomical Twilight 5:21 AM PST 6:54 PM PST
Moon 5:21 AM PST (2/8) 4:05 PM PST (2/8)
Length of Visible Light 11h 30m
Length of Day
10h 36m
Waning Crescent, 3% of the Moon is Illuminated
Feb 8
Waning Crescent
Feb 9
New
Feb 17
First Quarter
Feb 25
Full
Mar 4
Last Quarter

Hourly Weather History & Observations

Time (PST) Temp. Windchill Dew Point Humidity Pressure Visibility Wind Dir Wind Speed Gust Speed Precip Events Conditions
12:56 AM 36.0 °F 29.0 °F 5.0 °F 27% 29.68 in 10.0 mi North 9.2 mph 23.0 mph N/A   Clear
1:56 AM 36.0 °F 29.6 °F 8.1 °F 31% 29.68 in 10.0 mi North 8.1 mph - N/A   Scattered Clouds
2:56 AM 37.9 °F 28.5 °F 15.1 °F 39% 29.65 in 10.0 mi North 17.3 mph 25.3 mph N/A   Mostly Cloudy
3:56 AM 37.0 °F 25.9 °F 17.1 °F 44% 29.66 in 10.0 mi North 23.0 mph 38.0 mph N/A   Overcast
4:56 AM 33.1 °F 21.2 °F 24.1 °F 70% 29.70 in 10.0 mi North 20.7 mph 31.1 mph N/A   Overcast
5:56 AM 32.0 °F 26.4 °F 24.1 °F 73% 29.72 in 10.0 mi NW 5.8 mph - N/A   Overcast
6:56 AM 33.1 °F 26.1 °F 21.9 °F 64% 29.72 in 10.0 mi NNW 8.1 mph - N/A   Overcast
7:56 AM 34.0 °F 25.5 °F 19.0 °F 54% 29.73 in 10.0 mi NNW 11.5 mph - N/A   Mostly Cloudy
8:56 AM 37.0 °F 26.2 °F 17.1 °F 44% 29.73 in 10.0 mi North 21.9 mph 27.6 mph N/A   Clear
9:56 AM 39.9 °F 31.4 °F 15.1 °F 36% 29.74 in 10.0 mi North 16.1 mph 26.5 mph N/A   Scattered Clouds
10:56 AM 41.0 °F 31.6 °F 12.9 °F 32% 29.75 in 10.0 mi North 20.7 mph 26.5 mph N/A   Scattered Clouds
11:56 AM 45.0 °F 37.4 °F 12.0 °F 26% 29.71 in 10.0 mi North 18.4 mph 27.6 mph N/A   Mostly Cloudy
12:56 PM 42.1 °F 33.1 °F 12.9 °F 31% 29.70 in 10.0 mi North 20.7 mph 32.2 mph N/A   Scattered Clouds
1:56 PM 42.1 °F 32.8 °F 15.1 °F 34% 29.70 in 10.0 mi North 21.9 mph 27.6 mph N/A   Overcast
2:56 PM 41.0 °F 31.1 °F 12.9 °F 32% 29.70 in 10.0 mi North 23.0 mph 29.9 mph N/A   Scattered Clouds
3:56 PM 39.0 °F 29.3 °F 15.1 °F 38% 29.73 in 10.0 mi North 19.6 mph 26.5 mph N/A   Overcast
4:56 PM 37.9 °F 28.5 °F 15.1 °F 39% 29.74 in 10.0 mi North 17.3 mph 25.3 mph N/A   Overcast
5:56 PM 35.1 °F 24.5 °F 19.0 °F 52% 29.78 in 10.0 mi North 18.4 mph 25.3 mph N/A   Overcast
6:56 PM 34.0 °F 24.2 °F 21.9 °F 61% 29.81 in 10.0 mi North 15.0 mph - N/A   Overcast
7:56 PM 33.1 °F 23.0 °F 21.9 °F 64% 29.81 in 10.0 mi North 15.0 mph 23.0 mph N/A   Overcast
8:56 PM 33.1 °F 23.0 °F 23.0 °F 66% 29.81 in 10.0 mi NNE 15.0 mph - N/A   Overcast
9:56 PM 33.1 °F 22.2 °F 21.9 °F 64% 29.81 in 10.0 mi NNE 17.3 mph 23.0 mph N/A   Overcast
10:56 PM 33.1 °F 23.4 °F 21.0 °F 61% 29.81 in 10.0 mi North 13.8 mph - N/A   Overcast
11:56 PM 34.0 °F 22.1 °F 17.1 °F 50% 29.79 in 10.0 mi North 21.9 mph 27.6 mph N/A   Overcast